Regional Weather Roundup
Issued by NWS

Home | Current Version | Previous Version | Text Only | Print | Product List | Glossary Off
Versions: 1 2 3 4 5 6 7 8 9 10 11 12 13 14 15 16 17 18 19 20 21 22 23 24 25 26 27 28 29 30 31 32 33 34 35 36 37 38 39 40 41 42 43 44 45 46 47 48 49 50

000
ASUS43 KIND 061059
RWRIN

WEATHER ROUNDUP FOR INDIANA
NATIONAL WEATHER SERVICE INDIANAPOLIS IN
600 AM EST FRI MAR 06 2015

NOTE: "FAIR" INDICATES FEW OR NO CLOUDS BELOW 12,000 FEET WITH NO
SIGNIFICANT WEATHER AND/OR OBSTRUCTIONS TO VISIBILITY.

* - STATION DOES NOT REPORT WEATHER SUCH AS PRECIPITATION OR FOG.

+ - STATION NOT QUALITY CONTROLLED BY THE NATIONAL WEATHER SERVICE.
    USE DATA WITH CAUTION...ESPECIALLY DEWPOINT AND RELATIVE
    HUMIDITY OBSERVATIONS.

INZ001>003-010>013-019-020-061200-
NORTHWEST INDIANA

CITY           SKY/WX    TMP DP  RH WIND       PRES   REMARKS
GARY /AIRPORT/ CLEAR      5  -4  66 S7        30.50F WCI  -7
MONTICELLO +   PTCLDY    -4  -7  86 S3        30.52S
VALPARAISO     NOT AVBL

$$

LMZ046-743>745-061200-
SOUTHERN LAKE MICHIGAN

STATION/POSITION TIME  TEMP WIND        PRES
                       AIR  DIR/SP/G
                 (UTC) (F)  (DEG/KT/KT) (MB)
MICHIGAN CITY    1000    5  180/ 10/ 11   N/A

$$

INZ004-005-014>016-021>024-061200-
NORTH CENTRAL INDIANA

CITY           SKY/WX    TMP DP  RH WIND       PRES   REMARKS
GOSHEN         PTCLDY     1  -6  72 S5        30.48F WCI  -9
SOUTH BEND     PTCLDY     1  -5  75 SW6       30.49R WCI -10

$$

INZ006>009-017-018-025>027-061200-
NORTHEAST INDIANA

CITY           SKY/WX    TMP DP  RH WIND       PRES   REMARKS
ANGOLA *+      CLEAR     -6 -18  54 CALM      30.45S
FORT WAYNE     PTCLDY    -2  -6  83 SW7       30.52R WCI -15

$$

INZ028-029-035-036-043>045-051>053-061200-
WEST CENTRAL INDIANA

CITY           SKY/WX    TMP DP  RH WIND       PRES   REMARKS
CRAWFORDSVL +  MOCLDY    -6 -13  73 CALM      30.53R
GREENCASTLE +  PTCLDY     0  -8  71 CALM      30.53S
LAFAYETTE      MOCLDY    -6 -10  83 CALM      30.55R
TERRE HAUTE    MOCLDY    -4  -8  83 CALM      30.56S

$$

INZ030>032-037>040-046>048-054>057-064-065-061200-
CENTRAL INDIANA

CITY           SKY/WX    TMP DP  RH WIND       PRES   REMARKS
FRANKFORT +    MOCLDY   -11 -16  80 CALM      30.54R
GREENWOOD *+   PTCLDY     3  -2  78 CALM      30.53F
INDIANAPOLIS   PTCLDY     5  -1  76 CALM      30.52S
-EAGLE CREEK   PTCLDY     3  -2  79 CALM      30.52F
KOKOMO *+        N/A    N/A N/A N/A MISG        N/A
MT COMFORT *+  PTCLDY    -4 -13  65 CALM      30.52F
SHELBYVILLE    FOG        1  -3  83 CALM      30.53S VSB 3/4

$$

INZ033-034-041-042-049-050-058-059-061200-
EAST CENTRAL INDIANA

CITY           SKY/WX    TMP DP  RH WIND       PRES   REMARKS
MUNCIE         PTCLDY     4  -1  80 SW3       30.52R

$$

INZ060-061-067>069-081>083-085>088-061200-
SOUTHWEST INDIANA

CITY           SKY/WX    TMP DP  RH WIND       PRES   REMARKS
EVANSVILLE     MOCLDY     3  -2  79 CALM      30.60R
HUNTINGBURG *+ PTCLDY     0  -8  71 CALM      30.58R

$$

INZ062-063-066-070>080-084-089>092-061200-
SOUTH CENTRAL AND SOUTHEAST INDIANA

CITY           SKY/WX    TMP DP  RH WIND       PRES   REMARKS
BLOOMINGTON    PTCLDY     1  -4  79 CALM      30.53S
SEYMOUR +      HAZE       1  -4  78 CALM      30.56S VSB 1/2

$$




USA.gov is the U.S. government's official web portal to all federal, state and local government web resources and services.